sat.trackr.live / text

‹ back to catalog

STARLINK-34108

NORAD 65872 · 2025-223U

PAYLOAD ACTIVE UNKNOWN

§ Identity

Operator
Country
US
Launch date
2025-10-03
Launch site
AFWTR
Launch vehicle
Mass (kg)
RCS (m²)

Purposes: comms

External: N2YO · Heavens-Above · Gunter

§ Orbital elements

Epoch: 2026-05-25T03:28:39.802368Z

Period
94.11 min
Inclination
53.1600°
Eccentricity
0.0001357
Mean motion
15.30202393 rev/d
Perigee alt
474.3 km
Apogee alt
476.1 km
Semi-major
6,853.3 km
B*
8.0699e-4
RAAN
298.8826°
Arg perigee
75.2487°
Mean anomaly
284.8664°
Rev number
3,591

§ Raw data

STARLINK-341081 65872U 25223U   26145.14490512  .00023619  00000+0  80699-3 0  99912 65872  53.1600 298.8826 0001357  75.2487 284.8664 15.30202393 35911

JSON: /api/v1/satellites/65872 · /tle

For live sub-satellite position, see the globe view (requires WebGL).

§ Visibility from observer

Set your observer location to see the next 7 days of passes ≥ 10°. The values pass through the URL so the page stays shareable.

No JS? Fill the form by hand. The geolocation button needs JavaScript.